Regional Weather Roundup
Issued by NWS

Home | Current Version | Previous Version | Graphics & Text | Print | Product List | Glossary On
Versions: 1 2 3 4 5 6 7 8 9 10 11 12 13 14 15 16 17 18 19 20 21 22 23 24 25 26 27 28 29 30 31 32 33 34 35 36 37 38 39 40 41 42 43 44 45 46 47 48 49 50
000
ASUS45 KTFX 050910
RWRMT
MONTANA REGIONAL WEATHER ROUNDUP
NATIONAL WEATHER SERVICE GREAT FALLS MT
300 AM MDT SUN JUL 05 2015

NOTE: "FAIR" INDICATES FEW OR NO CLOUDS BELOW 12000 FEET WITH NO
SIGNIFICANT WEATHER AND/OR OBSTRUCTIONS TO VISIBILITY.

MTZ001>007-043-051000-
WEST OF THE DIVIDE

CITY           SKY/WX    TMP DP  RH WIND       PRES   REMARKS
KALISPELL      MOSUNNY   64  43  46 NE23G37   29.97R
MISSOULA       PTCLDY    65  42  43 CALM      29.83R
BUTTE          MOCLDY    62  47  57 N28G41    29.98R
MULLAN PASS    CLEAR     68  35  29 W3        30.00S
DEER LODGE       N/A     61  50  67 N13G22    30.06R
EUREKA           N/A     64  41  42 NE15G24   30.01R
HAMILTON         N/A     63  46  55 S3        29.85S
LIBBY            N/A     70  48  46 N13       29.93R
PLAINS           N/A     61  47  59 CALM      29.82R
RONAN            N/A     71  51  49 N10       29.89R
THOMPSON FALLS   N/A     61  47  59 CALM      29.84R
$$

MTZ008-052>055-051000-
SOUTHWEST MONTANA

CITY           SKY/WX    TMP DP  RH WIND       PRES   REMARKS
BOZEMAN        PTCLDY    67  50  54 NW21G28   29.88S
DILLON         CLOUDY    67  37  33 E8        29.91F
W YELLOWSTONE  MOCLDY    55  41  58 NE5       30.03R
THREE FORKS      N/A     65  60  83 N7        29.95R
TWIN BRIDGES     N/A     66  47  50 N22       29.90S
$$

MTZ009-010-012-014-046-048-049-054-051000-
EAST SLOPES AND CENTRAL MONTANA

CITY           SKY/WX    TMP DP  RH WIND       PRES   REMARKS
CUT BANK       LGT RAIN  51  50  96 N12       30.15R FOG
GREAT FALLS    CLOUDY    58  52  80 N15       30.08R
MALMSTROM AFB  CLOUDY    59  53  79 N20       30.07R
HELENA         CLOUDY    62  52  69 N16G32    30.04S
CONRAD           N/A     53  53 100 NW9       30.14R
$$

MTZ011-013-016-021-045-047-050-051-051000-
NORTH CENTRAL MONTANA

CITY           SKY/WX    TMP DP  RH WIND       PRES   REMARKS
LEWISTOWN      CLOUDY    61  53  75 N17G29    29.98R
FORT BENTON      N/A     59  54  82 NW10G17   30.06R
$$

MTZ017>020-022>027-061-062-051000-
NORTHEAST MONTANA

CITY           SKY/WX    TMP DP  RH WIND       PRES   REMARKS
GLASGOW        TSTM      59  52  77 N20       29.89F
JORDAN           N/A     61  58  90 N23G38    29.91R
SIDNEY         CLOUDY    66  61  82 N17       29.81R
WOLF POINT     LGT RAIN  65  60  84 NE13      29.85F
PLENTYWOOD       N/A     64  61  88 N10G18    29.89R
POPLAR           N/A     63  63 100 NE17      29.81F
SCOBEY           N/A     61  54  77 N10       29.89F
$$

MTZ028>42-056>058-051000-
SOUTHCENTRAL AND SOUTHEAST MONTANA

CITY           SKY/WX    TMP DP  RH WIND       PRES   REMARKS
BAKER          PTCLDY    62  55  77 SE7       29.74F
BILLINGS       PTCLDY    70  57  63 NW17      29.79R
LIVINGSTON     CLEAR     63  51  65 NW23G29   29.93R
MILES CITY     PTCLDY    68  63  84 NE14      29.69F
EKALAKA          N/A     71  60  68 SE8       29.76F
FORSYTH          N/A     70  63  78 N13G25    29.73R
LAUREL           N/A     71  54  55 NW14      29.80R
ROUNDUP          N/A     66  51  58 N29       29.80R
$$

REGIONAL REPORTS...DAKOTAS

CITY           SKY/WX    TMP DP  RH WIND       PRES   REMARKS
WILLISTON      CLOUDY    66  62  87 N13       29.83R
MINOT          MOCLDY    63  61  93 NW7       29.75F
DICKINSON      CLEAR     63  60  90 NE8       29.73F
BEACH          FAIR      61  61 100 E5        29.74F
CROSBY         FAIR      61  61 100 NW12      29.87R
BISMARCK       CLEAR     69  68  96 E5        29.72S
GRAND FORKS    LGT RAIN  68  66  93 SE10      29.75F
FARGO          CLOUDY    72  65  78 SE10      29.74F
BUFFALO SD       N/A     67  55  65 E5        29.69F
RAPID CITY     CLEAR     68  62  81 SW5       29.79F
$$

REGIONAL REPORTS...WYOMING/IDAHO/WASHINGTON

CITY           SKY/WX    TMP DP  RH WIND       PRES   REMARKS
GILLETTE       PTCLDY    72  55  55 S12       29.82F
SHERIDAN       PTCLDY    63  53  70 SW5       29.79S
BUFFALO WY     PTCLDY    73  53  49 W6        29.86F
CODY           PTCLDY    70  45  40 S7        29.88F
YELLOWSTONE LA   N/A     49  39  68 CALM      30.14F
IDAHO FALLS    MOCLDY    74  50  42 SW16      29.91R
SALMON         MOCLDY    64  50  59 CALM      29.85R
BOISE          MOCLDY    79  47  32 NE3       29.81R
SPOKANE        MOCLDY    75  28  17 N6        29.78R
$$

REGIONAL REPORTS...ALBERTA

CITY           SKY/WX    TMP DP  RH WIND       PRES   REMARKS
EDMONTON       CLOUDY    54  43  66 NW12G17   30.09R
CALGARY        PTCLDY    52  43  71 N9G17     30.17F
LETHBRIDGE     LGT RAIN  52  52 100 W7        30.16R
MEDICINE HAT   MOCLDY    55  54  94 W3        30.09F
WATERTON GATE    N/A     48  45  87 NE1         N/A
CARDSTON         N/A     48  48 100 W5          N/A
MILK RIVER       N/A     52  50  93 N14         N/A
ONEFOUR          N/A     52  50  93 N17         N/A
$$

REGIONAL REPORTS...SASKATCHEWAN

CITY           SKY/WX    TMP DP  RH WIND       PRES   REMARKS
SWIFT CURRENT  LGT RAIN  55  48  76 NW9       30.01S
REGINA         CLOUDY    57  55  94 NW6       29.90R FOG
SASKATOON      MOCLDY    54  48  82 NW7       29.95R
CYPRESS HILLS    N/A     48  46  93 N8          N/A
VAL MARIE        N/A     55  54  94 N12         N/A
ROCKGLEN         N/A     54  52  94 NW12G17     N/A
ASSINIBOIA       N/A     55  50  82 NW15        N/A
$$


USA.gov is the U.S. government's official web portal to all federal, state and local government web resources and services.